Location: Heilbronn
(49.1548°N, 9.2780°E)
Time: 00:49:15
(UTC+01:00)

ISS - Pass Details

Date: 23 February 2019
Orbit: 406 x 411 km, 51.6° (Epoch: 22 March)

Event Time Altitude Azimuth Distance (km) Brightness Sun altitude
Rises 06:26:50 0° 202° (SSW) 2,315 -0.2 -9.0°
Reaches altitude 10° 06:29:23 10° 181° (S) 1,460 -0.9 -8.6°
Maximum altitude 06:31:35 17° 139° (SE) 1,119 -0.9 -8.3°
Drops below altitude 10° 06:33:47 10° 97° (E) 1,468 0.8 -7.9°
Sets 06:36:22 0° 76° (ENE) 2,331 1.6 -7.5°
